TimeHST,TemperatureF,Dew PointF,Humidity,Sea Level PressureIn,VisibilityMPH,Wind Direction,Wind SpeedMPH,Gust SpeedMPH,PrecipitationIn,Events,Conditions,WindDirDegrees,DateUTC
12:54 AM,64.0,57.0,78,30.00,10.0,Variable,6.9,-,N/A,,Clear,0,2013-01-08 10:54:00
1:54 AM,63.0,57.0,81,29.99,10.0,Calm,Calm,-,N/A,,Clear,0,2013-01-08 11:54:00
2:54 AM,63.0,57.0,81,29.96,10.0,SSE,6.9,-,N/A,,Clear,150,2013-01-08 12:54:00
3:54 AM,61.0,55.9,83,29.95,10.0,South,3.5,-,N/A,,Clear,190,2013-01-08 13:54:00
4:54 AM,64.9,57.0,75,29.95,10.0,Variable,3.5,-,N/A,,Clear,0,2013-01-08 14:54:00
5:54 AM,60.1,55.0,83,29.96,10.0,Calm,Calm,-,N/A,,Clear,0,2013-01-08 15:54:00
6:54 AM,62.1,55.0,78,29.96,10.0,ESE,3.5,-,N/A,,Clear,120,2013-01-08 16:54:00
7:54 AM,61.0,55.9,83,29.97,10.0,SSE,6.9,-,N/A,,Clear,160,2013-01-08 17:54:00
8:54 AM,70.0,57.9,65,29.99,10.0,South,5.8,-,N/A,,Partly Cloudy,170,2013-01-08 18:54:00
9:54 AM,77.0,59.0,54,29.98,10.0,Variable,6.9,-,N/A,,Partly Cloudy,0,2013-01-08 19:54:00
10:54 AM,79.0,63.0,58,29.97,10.0,ENE,21.9,32.2,N/A,,Partly Cloudy,60,2013-01-08 20:54:00
11:54 AM,79.0,63.0,58,29.94,10.0,ENE,25.3,35.7,N/A,,Partly Cloudy,60,2013-01-08 21:54:00
12:54 PM,80.1,62.1,54,29.90,10.0,ENE,28.8,38.0,N/A,,Partly Cloudy,60,2013-01-08 22:54:00
1:54 PM,79.0,64.0,60,29.88,10.0,ENE,21.9,35.7,N/A,,Scattered Clouds,60,2013-01-08 23:54:00
2:54 PM,78.1,64.9,64,29.90,10.0,ENE,20.7,36.8,N/A,,Scattered Clouds,60,2013-01-09 00:54:00
3:54 PM,75.9,64.0,67,29.91,10.0,NE,23.0,36.8,N/A,,Scattered Clouds,50,2013-01-09 01:54:00
4:54 PM,73.0,64.9,76,29.93,10.0,ENE,24.2,35.7,N/A,,Scattered Clouds,60,2013-01-09 02:54:00
5:54 PM,72.0,64.9,78,29.96,10.0,ENE,20.7,29.9,N/A,,Scattered Clouds,60,2013-01-09 03:54:00
6:54 PM,71.1,64.0,78,29.97,10.0,ENE,18.4,24.2,N/A,,Scattered Clouds,60,2013-01-09 04:54:00
7:54 PM,71.1,64.9,81,30.00,10.0,NE,15.0,23.0,N/A,,Scattered Clouds,50,2013-01-09 05:54:00
8:54 PM,70.0,64.0,81,30.01,10.0,ENE,13.8,24.2,N/A,,Partly Cloudy,60,2013-01-09 06:54:00
9:54 PM,70.0,64.0,81,30.01,10.0,ENE,13.8,-,N/A,,Clear,60,2013-01-09 07:54:00
10:54 PM,71.1,64.0,78,30.01,10.0,ENE,16.1,23.0,N/A,,Clear,60,2013-01-09 08:54:00
11:54 PM,71.1,66.0,84,30.00,10.0,ENE,20.7,28.8,N/A,,Partly Cloudy,60,2013-01-09 09:54:00